Dewpoint
14 15 15 14 14 14 14 14 13 12 12 11 11 11 11 9 4 0 4 2 -3 -5 5 9 1 8 12 12 12 12 8 8 8 0 1 10 13 12 12 3 4 7 6
14 15 15 15 14 14 14 14 13 13 12 11 11 11 10 9 4 2 8 1 -4 5 12 13 4 1 11 12 13 10 2 5 6 1 0 4 5 3 5 9 13 13 8
13 15 15 15 14 14 14 13 13 13 13 12 11 11 10 9 6 5 10 5 3 12 13 14 11 3 6 10 11 4 5 10 12 12 4 1 2 8 12 13 13 11 2
15 15 15 15 15 13 13 13 13 13 13 12 13 13 10 10 8 5 10 9 10 10 12 9 3 2 4 4 7 3 12 13 13 12 12 11 11 12 10 7 4 -1 -2
15 15 15 14 15 12 13 12 12 13 12 12 12 13 9 10 9 4 12 12 9 12 11 6 -3 -4 -0 -1 2 8 12 12 12 13 12 9 7 2 -1 -1 -1 -1 -1
15 15 16 15 15 13 12 12 12 13 12 12 12 12 12 10 9 2 12 13 10 9 9 5 -1 -4 -2 -0 -1 8 11 12 12 12 11 9 1 -1 -1 -0 0 1 0
14 14 14 16 15 15 13 12 12 12 11 11 12 12 12 13 9 5 10 13 13 5 4 0 -0 -2 -1 -0 1 3 6 7 9 10 10 8 2 -1 0 1 2 2 2
14 14 14 14 15 15 14 12 11 11 11 11 12 12 12 12 9 7 6 12 13 10 -1 -3 -2 -2 -1 -1 -1 0 3 5 6 6 6 4 -1 -0 1 2 2 2 2
12 14 14 14 14 14 15 14 13 12 12 11 11 11 12 10 9 8 6 11 13 12 7 -4 -3 -1 -0 -0 -1 -2 -1 3 5 5 5 5 0 1 1 2 2 2 2
-0 10 12 13 14 15 14 14 13 13 13 12 11 11 9 9 9 10 10 10 12 13 11 -0 -3 -0 0 0 0 -1 -1 2 6 7 5 6 4 1 1 1 2 2 2
-8 -4 6 12 15 14 14 14 14 13 13 12 11 11 11 10 9 10 10 9 11 13 13 8 -3 -1 0 0 0 1 -0 3 6 6 5 6 5 2 1 1 1 1 2
-11 -12 -8 -0 10 14 14 14 14 14 14 12 12 11 10 10 10 10 11 10 11 12 13 11 -1 -2 1 1 1 1 1 2 6 6 6 6 6 2 2 2 1 1 2
-10 -12 -13 -12 -5 7 14 15 14 14 14 13 12 12 11 10 10 11 11 11 11 11 13 13 7 -3 -1 1 1 1 2 4 6 6 7 6 5 3 2 1 1 1 1
-11 -11 -10 -13 -16 -11 -1 11 14 14 13 13 13 12 12 11 10 10 11 12 12 11 11 12 12 8 -2 0 2 4 5 4 8 9 8 6 5 3 1 1 1 1 1
-5 -6 -8 -8 -9 -14 -15 -7 6 13 13 13 13 13 12 11 11 11 12 13 12 12 12 12 12 12 9 -1 1 4 9 7 8 9 8 7 5 3 1 1 1 1 2
-2 -2 -2 -3 -4 -4 -8 -13 -12 -3 10 13 13 14 13 12 11 12 12 14 12 12 12 12 12 12 10 7 1 6 9 9 8 8 6 5 5 3 2 1 1 1 2
2 1 1 1 -1 -2 -2 -5 -9 -13 -8 7 13 14 13 13 12 12 12 12 13 12 12 11 12 13 12 11 7 5 9 9 9 8 8 7 7 4 2 1 1 1 2
2 2 2 2 1 0 -1 -3 -6 -8 -12 -9 5 12 13 13 12 12 12 13 12 12 12 12 12 12 11 11 10 7 8 9 8 8 7 7 7 5 3 2 2 2 2
2 3 3 3 2 2 1 0 -1 -5 -7 -11 -10 3 12 12 12 12 13 12 12 11 12 12 11 12 12 11 11 10 9 8 8 7 6 7 6 5 4 4 4 3 2
0 2 4 4 4 3 3 2 1 0 -3 -7 -10 -10 5 12 12 12 12 13 12 13 12 12 11 12 12 12 11 10 9 9 9 8 7 8 7 6 6 5 5 4 3
1 1 -0 1 4 5 4 3 2 1 -1 -3 -6 -5 -5 2 11 12 12 13 13 13 13 12 12 12 12 12 12 10 10 9 9 9 8 7 7 6 7 6 7 6 4
3 3 4 3 1 5 5 4 2 2 1 -0 -2 -5 -4 -0 6 11 12 13 12 12 13 12 12 12 12 12 12 12 12 11 10 9 9 9 7 6 6 5 5 5 5
3 3 4 4 3 3 5 4 3 3 2 1 0 -1 1 1 1 7 12 12 12 12 12 12 11 11 12 11 12 12 12 12 11 11 9 8 9 8 7 6 5 5 5
2 3 3 3 3 2 6 5 4 3 3 2 1 1 4 3 1 4 9 10 12 11 11 12 11 10 11 11 11 11 12 11 11 9 8 7 7 7 6 6 6 6 6
2 3 4 3 3 3 6 6 4 3 3 3 2 1 3 4 3 2 5 8 11 12 12 12 11 11 11 11 11 11 10 11 11 11 11 10 9 8 8 8 8 7 7
2 4 5 4 4 4 7 6 6 4 3 3 2 2 4 2 3 3 5 7 10 11 11 12 12 11 11 11 10 10 10 10 10 11 10 10 10 9 9 8 8 8 8
Wind_Speed
5 4 1 6 10 12 10 9 10 9 8 7 6 7 6 5 6 6 6 6 9 11 13 13 12 16 12 10 11 12 9 11 12 12 13 14 15 12 10 11 9 11 12
6 2 3 9 11 11 11 11 9 9 7 6 6 6 5 5 5 6 7 8 11 13 14 12 9 11 11 11 12 9 11 12 12 12 12 12 10 9 9 10 11 11 10
2 4 5 10 11 13 11 10 10 9 6 5 5 6 5 4 4 6 7 9 12 13 11 9 4 7 9 7 10 10 13 15 14 12 10 10 10 10 11 12 10 6 9
3 3 4 8 10 12 12 11 10 10 8 6 6 6 4 4 4 6 7 8 10 11 9 6 3 6 8 7 11 13 17 16 13 13 11 8 10 10 7 4 4 6 7
3 4 7 7 9 11 12 10 10 9 9 8 6 6 4 4 4 5 6 7 9 8 8 6 6 6 8 9 14 18 17 15 10 7 5 6 4 3 4 4 4 5 6
4 1 5 7 8 9 11 11 10 9 9 9 8 6 4 5 5 7 8 8 7 8 7 6 6 7 8 10 14 17 16 13 10 9 6 1 3 3 4 4 4 4 5
3 1 4 6 8 10 11 12 12 10 9 9 9 7 7 6 6 8 10 10 7 5 7 6 7 8 9 10 11 14 14 11 12 9 9 4 2 3 4 3 3 3 4
1 5 4 6 6 9 12 13 13 12 11 11 10 9 9 8 8 9 12 10 10 5 6 8 9 9 9 9 10 11 12 9 8 7 5 4 4 4 3 2 2 2 3
2 2 4 7 7 7 12 13 14 14 13 13 12 12 11 10 9 11 12 11 12 9 7 9 10 10 10 10 9 10 11 10 8 6 4 2 4 4 3 2 1 1 2
4 5 3 8 8 8 11 14 16 17 15 15 15 15 13 12 12 13 13 12 14 14 10 10 12 12 11 10 10 10 11 11 9 7 5 4 4 4 4 3 2 2 1
11 9 8 7 10 12 12 11 14 18 19 19 18 18 16 15 14 14 15 15 15 16 13 12 14 14 13 12 11 11 12 13 10 8 9 6 6 6 6 5 5 4 4
17 16 14 13 12 14 15 15 15 15 18 21 21 20 20 18 16 15 15 16 17 18 17 14 15 16 16 14 13 12 12 14 11 9 8 8 8 8 8 8 7 7 6
20 19 19 18 18 16 18 18 19 20 19 20 23 23 22 21 19 18 17 16 19 21 21 19 18 19 18 17 15 14 13 14 13 12 11 10 10 10 10 10 9 9 9
20 19 19 20 22 22 21 22 23 23 22 21 21 24 25 25 22 22 22 20 19 22 23 23 21 20 20 20 17 14 13 16 15 13 14 12 12 11 11 11 10 10 11
24 23 20 20 21 22 25 26 26 27 29 27 24 21 23 26 24 23 24 24 22 22 23 26 25 23 21 22 22 20 15 16 18 17 18 16 14 13 13 13 12 11 12
24 25 23 24 22 21 23 24 29 29 28 30 28 26 25 24 26 25 25 28 27 24 23 25 27 25 22 23 24 23 19 19 19 18 21 19 17 15 14 15 14 13 13
13 18 24 27 26 27 28 27 26 30 32 30 34 30 31 28 28 30 31 30 29 26 22 22 26 25 21 18 23 28 26 26 25 23 20 21 21 19 17 16 16 16 16
17 19 21 25 29 28 30 32 31 27 32 36 33 37 30 32 32 34 37 36 34 30 27 24 25 27 24 23 22 26 28 28 28 27 26 26 26 24 22 19 18 18 19
26 28 30 30 28 30 32 31 33 32 30 35 38 35 40 36 35 37 40 39 38 36 32 29 28 29 28 26 26 25 26 27 28 28 29 29 29 28 25 22 20 19 19
32 35 34 32 31 29 30 33 31 32 31 30 36 40 38 42 41 41 41 41 39 38 36 33 32 31 33 30 30 30 30 30 30 32 31 30 32 31 28 27 25 23 21
29 28 29 36 35 30 27 31 33 33 31 30 32 36 38 38 42 45 44 44 42 38 40 38 35 33 34 35 31 31 33 34 35 34 33 33 33 31 31 30 30 29 26
33 33 33 29 31 29 27 29 31 30 32 30 29 31 36 38 37 43 45 48 44 46 42 40 38 37 37 36 36 34 29 35 38 39 39 39 39 38 36 35 33 33 33
35 34 32 33 28 29 23 24 26 29 30 30 28 28 31 32 35 39 40 43 42 43 47 44 44 41 38 38 37 29 12 18 22 30 31 28 28 33 32 36 38 40 39
39 34 31 29 25 23 19 20 24 28 30 31 29 28 30 33 33 36 39 44 41 40 45 45 46 44 38 40 34 36 37 27 11 10 15 16 17 20 22 23 25 27 28
37 30 29 25 19 19 16 19 21 24 28 28 28 30 28 33 32 30 36 43 41 39 41 44 45 44 42 43 40 36 33 35 36 36 30 31 31 28 28 29 28 29 29
34 27 25 18 15 13 12 15 20 21 22 26 26 26 26 29 29 31 31 35 39 41 38 39 43 44 42 41 36 34 33 30 30 34 33 33 34 39 36 34 35 35 34
Wind_Direction
8 342 267 199 179 175 171 164 157 148 139 133 128 121 109 92 88 85 86 92 116 115 108 100 115 125 120 130 124 120 117 110 95 101 116 117 110 104 96 80 87 86 79
352 278 237 201 192 184 179 179 170 162 152 148 146 137 122 103 99 93 89 94 117 115 114 121 103 140 127 125 127 119 113 110 94 100 118 126 120 107 91 88 101 89 67
341 315 200 196 197 193 186 185 181 175 178 171 165 166 143 121 120 113 108 106 115 119 129 132 127 139 157 139 140 118 115 106 98 90 101 123 116 106 104 108 105 69 42
43 105 158 196 202 199 199 194 190 190 190 193 171 172 158 141 146 134 126 117 121 129 136 153 144 148 151 133 143 128 116 105 98 100 102 113 120 116 110 98 65 45 46
117 156 162 188 209 201 205 208 199 199 197 200 188 195 193 164 163 157 157 137 139 143 152 140 128 138 144 130 136 135 123 113 115 139 127 132 146 114 92 80 70 62 56
101 199 195 181 203 213 210 214 211 209 206 201 201 209 241 181 181 185 181 170 154 167 170 164 145 143 143 138 141 146 138 135 135 144 176 175 117 131 116 99 82 68 61
90 193 236 215 209 212 217 218 214 213 215 213 213 212 222 209 205 199 194 194 180 177 189 183 171 160 156 153 152 158 161 161 164 179 214 211 177 153 135 119 99 77 67
166 203 241 256 232 224 219 220 221 217 217 223 223 229 225 221 218 210 201 201 201 195 191 192 179 173 172 168 167 170 174 176 175 176 183 185 177 178 160 145 120 89 79
346 231 215 250 249 237 220 222 226 225 225 223 226 230 227 229 225 213 206 208 206 207 209 203 192 189 190 184 179 178 180 182 181 193 207 205 194 205 196 193 188 109 87
303 298 270 244 246 237 226 234 232 231 230 229 230 231 228 228 226 219 215 213 208 211 218 216 206 202 202 197 191 185 182 187 191 208 209 202 218 228 234 236 243 253 248
288 273 271 253 232 241 243 228 238 241 235 232 233 232 230 228 234 229 221 218 217 216 219 223 216 212 209 204 199 193 189 189 195 210 217 232 248 243 244 246 251 254 251
293 282 265 262 249 237 236 242 242 237 242 238 235 234 235 233 234 232 229 226 226 221 223 227 224 221 218 214 208 204 197 196 203 210 226 236 252 249 249 250 251 253 254
297 290 281 266 258 253 241 236 240 243 240 240 242 239 237 238 234 230 224 224 227 225 224 227 226 225 225 223 219 213 208 204 211 222 237 244 249 252 252 251 249 251 253
298 296 290 280 266 254 249 248 243 246 246 243 239 242 242 237 232 227 224 224 231 228 229 229 231 233 232 229 225 217 214 216 217 223 241 245 245 251 256 256 253 252 253
308 303 297 294 284 271 256 248 245 243 245 248 242 239 246 241 230 226 229 228 235 236 238 235 232 234 236 234 232 226 220 219 224 226 236 245 251 254 253 256 257 255 254
311 307 302 296 290 284 272 258 251 247 243 240 243 236 242 248 238 226 233 233 235 239 238 238 235 234 239 239 232 230 228 233 234 238 237 244 251 252 252 253 256 258 256
308 301 294 292 287 278 278 274 262 250 246 240 235 236 231 238 240 234 236 237 237 239 235 239 235 233 233 241 239 227 226 234 234 240 240 245 253 255 255 254 254 254 255
291 286 281 284 286 279 274 272 270 262 250 245 238 234 238 230 234 233 236 236 237 241 237 234 237 228 233 237 245 238 239 241 236 238 241 245 250 256 255 254 256 255 254
283 280 278 276 272 276 272 271 268 265 259 249 243 236 234 235 230 236 236 238 239 239 237 233 232 232 227 233 240 252 244 237 239 245 242 243 249 255 258 260 259 259 257
284 277 273 271 270 270 276 268 265 265 260 252 247 241 235 235 239 235 237 236 234 235 234 233 233 226 229 230 234 241 243 239 249 248 246 248 250 253 256 260 262 262 261
315 305 287 271 262 267 267 269 259 258 259 255 250 247 244 239 239 241 240 235 233 231 232 235 235 230 229 230 230 230 234 241 250 250 249 251 250 249 251 257 258 263 262
328 323 317 300 266 256 259 272 258 256 259 258 258 254 249 248 242 242 244 245 243 237 233 237 235 235 234 234 231 234 240 246 246 247 250 252 254 253 250 254 255 261 267
329 322 317 311 282 250 254 262 263 248 253 256 257 252 251 251 248 245 246 250 247 244 240 236 238 235 233 233 233 227 218 228 247 257 260 261 257 254 255 256 259 261 265
332 325 317 311 294 252 253 257 260 249 250 252 252 251 256 258 256 250 247 249 248 248 244 238 239 235 233 240 236 235 239 243 216 246 256 253 254 256 261 264 263 260 263
339 332 322 311 302 253 253 253 259 257 252 258 258 253 252 259 263 264 253 247 250 249 245 243 238 239 237 238 241 239 242 243 254 252 268 262 261 262 265 270 269 268 266
345 341 330 315 304 266 258 255 257 253 255 256 261 256 259 261 267 266 257 252 248 248 247 247 242 240 241 240 237 243 244 242 245 255 257 262 271 275 273 273 269 265 264
Height
1532 1532 1532 1532 1532 1533 1534 1535 1536 1537 1538 1539 1540 1540 1541 1542 1542 1542 1543 1543 1543 1543 1544 1546 1547 1547 1547 1548 1549 1548 1549 1549 1549 1549 1550 1550 1551 1551 1551 1551 1551 1550 1550
1532 1531 1532 1532 1533 1533 1534 1535 1537 1538 1539 1539 1540 1541 1542 1542 1543 1543 1543 1544 1544 1545 1546 1547 1548 1548 1549 1549 1549 1550 1550 1551 1551 1551 1551 1552 1552 1552 1552 1552 1552 1552 1552
1531 1530 1531 1532 1533 1534 1535 1536 1537 1538 1539 1540 1541 1541 1542 1542 1543 1544 1544 1544 1545 1546 1547 1548 1548 1549 1549 1550 1551 1551 1552 1552 1552 1553 1554 1553 1553 1553 1553 1554 1553 1553 1553
1530 1530 1531 1532 1533 1534 1535 1536 1537 1538 1539 1540 1541 1541 1541 1542 1543 1544 1545 1545 1546 1547 1548 1548 1548 1548 1549 1551 1551 1552 1553 1554 1554 1554 1555 1556 1555 1555 1555 1555 1554 1554 1554
1530 1530 1530 1532 1533 1534 1535 1536 1537 1538 1539 1540 1541 1542 1541 1542 1543 1544 1545 1545 1546 1547 1548 1549 1548 1549 1550 1551 1552 1553 1554 1554 1555 1555 1555 1556 1556 1556 1556 1556 1555 1555 1554
1531 1530 1531 1531 1532 1533 1535 1536 1537 1538 1539 1540 1540 1542 1542 1542 1543 1544 1545 1546 1546 1547 1548 1549 1549 1549 1550 1552 1552 1553 1554 1555 1555 1555 1556 1557 1557 1557 1556 1556 1556 1556 1555
1530 1531 1531 1531 1531 1532 1533 1535 1536 1537 1539 1539 1540 1541 1542 1542 1543 1544 1544 1546 1547 1547 1548 1548 1549 1549 1550 1551 1553 1554 1555 1555 1556 1555 1557 1557 1557 1557 1557 1557 1556 1556 1556
1530 1530 1531 1530 1531 1531 1532 1534 1535 1536 1538 1539 1540 1541 1541 1542 1542 1543 1544 1545 1546 1547 1547 1548 1548 1549 1550 1550 1552 1553 1554 1555 1555 1555 1556 1556 1556 1557 1557 1557 1556 1556 1556
1529 1529 1529 1530 1530 1530 1531 1533 1534 1535 1536 1537 1538 1539 1540 1540 1541 1542 1543 1544 1545 1546 1546 1547 1547 1548 1549 1550 1551 1552 1553 1554 1554 1554 1555 1556 1556 1556 1556 1556 1556 1556 1556
1528 1528 1528 1528 1529 1529 1529 1531 1532 1533 1534 1535 1536 1536 1537 1538 1539 1540 1541 1542 1543 1544 1545 1545 1546 1547 1547 1548 1549 1550 1551 1552 1553 1553 1554 1554 1555 1555 1556 1556 1556 1556 1556
1526 1527 1526 1527 1527 1527 1528 1528 1529 1530 1531 1532 1533 1534 1535 1536 1537 1538 1539 1541 1542 1542 1543 1544 1544 1545 1546 1547 1548 1549 1550 1551 1552 1551 1552 1553 1553 1554 1554 1554 1554 1554 1554
1523 1523 1524 1524 1525 1525 1525 1526 1526 1526 1528 1529 1529 1530 1532 1533 1534 1536 1537 1538 1539 1540 1541 1542 1542 1543 1544 1545 1546 1547 1548 1549 1550 1550 1550 1551 1551 1552 1552 1552 1553 1553 1553
1518 1519 1519 1520 1521 1522 1522 1522 1522 1523 1524 1525 1526 1527 1528 1530 1531 1532 1533 1534 1535 1536 1537 1539 1540 1540 1542 1543 1544 1545 1547 1547 1548 1547 1549 1549 1550 1550 1550 1550 1550 1550 1550
1515 1515 1515 1515 1515 1517 1518 1519 1519 1519 1520 1520 1521 1523 1524 1525 1526 1527 1528 1529 1530 1531 1533 1535 1537 1538 1539 1540 1542 1543 1544 1545 1546 1545 1547 1547 1547 1547 1547 1548 1548 1548 1548
1512 1512 1511 1511 1510 1511 1511 1513 1514 1515 1516 1516 1517 1518 1519 1520 1521 1522 1522 1524 1526 1527 1529 1530 1532 1534 1536 1537 1538 1539 1541 1543 1543 1543 1544 1544 1544 1545 1545 1545 1545 1545 1545
1510 1508 1507 1507 1506 1505 1504 1506 1507 1509 1510 1511 1512 1512 1514 1515 1517 1518 1518 1519 1521 1522 1524 1525 1527 1529 1531 1533 1535 1535 1537 1538 1539 1540 1540 1541 1541 1541 1541 1542 1542 1542 1543
1506 1505 1503 1502 1501 1500 1499 1498 1500 1501 1503 1505 1507 1507 1508 1510 1511 1513 1514 1515 1516 1518 1520 1521 1523 1525 1526 1528 1530 1532 1532 1534 1535 1536 1536 1536 1537 1537 1538 1538 1538 1539 1539
1502 1500 1497 1496 1495 1493 1492 1492 1492 1493 1495 1496 1499 1501 1503 1504 1506 1508 1508 1509 1511 1513 1515 1516 1517 1518 1520 1523 1524 1526 1527 1529 1530 1531 1532 1532 1532 1533 1533 1534 1534 1535 1536
1496 1493 1490 1489 1486 1486 1485 1484 1484 1485 1486 1488 1490 1492 1495 1498 1499 1501 1501 1504 1506 1507 1509 1510 1512 1513 1513 1516 1519 1521 1522 1524 1525 1526 1526 1528 1528 1527 1529 1529 1530 1531 1531
1487 1485 1482 1480 1478 1477 1477 1476 1476 1477 1477 1479 1480 1483 1487 1490 1493 1494 1495 1497 1499 1500 1502 1504 1506 1508 1510 1511 1513 1515 1517 1519 1520 1520 1521 1523 1524 1523 1523 1524 1525 1525 1527
1478 1474 1471 1469 1469 1469 1468 1468 1468 1468 1470 1471 1472 1475 1478 1481 1484 1487 1488 1489 1491 1492 1495 1497 1500 1501 1504 1506 1508 1510 1511 1513 1513 1513 1515 1515 1516 1517 1519 1518 1519 1520 1521
1471 1466 1462 1459 1458 1460 1460 1460 1461 1462 1463 1465 1466 1467 1471 1474 1476 1478 1480 1482 1485 1486 1488 1490 1492 1494 1496 1499 1501 1502 1502 1506 1505 1505 1507 1507 1508 1509 1511 1512 1513 1513 1514
1466 1460 1455 1451 1448 1449 1452 1453 1454 1456 1457 1458 1460 1461 1464 1467 1468 1470 1472 1474 1477 1479 1479 1482 1484 1486 1489 1490 1492 1495 1497 1494 1497 1498 1499 1499 1499 1500 1502 1504 1505 1506 1507
1459 1454 1449 1445 1441 1442 1446 1447 1449 1450 1451 1453 1455 1458 1459 1461 1462 1463 1464 1466 1468 1470 1471 1473 1476 1477 1480 1485 1486 1487 1489 1490 1492 1492 1492 1492 1493 1494 1495 1496 1497 1499 1499
1457 1450 1445 1440 1437 1438 1440 1443 1444 1445 1448 1450 1451 1453 1453 1455 1456 1457 1458 1459 1460 1463 1464 1466 1468 1471 1472 1477 1478 1480 1483 1485 1486 1485 1484 1485 1489 1489 1489 1489 1489 1490 1491
1456 1450 1443 1438 1436 1436 1438 1439 1440 1442 1444 1445 1446 1448 1449 1449 1450 1450 1451 1452 1454 1455 1457 1459 1461 1461 1463 1467 1470 1474 1476 1477 1477 1480 1479 1478 1480 1480 1482 1482 1482 1482 1483